Regional Weather Roundup
Issued by NWS

Home | Current Version | Previous Version | Graphics & Text | Print | Product List | Glossary On
Versions: 1 2 3 4 5 6 7 8 9 10 11 12 13 14 15 16 17 18 19 20 21 22 23 24 25 26 27 28 29 30 31 32 33 34 35 36 37 38 39 40 41 42 43 44 45 46 47 48 49 50
897
ASUS43 KLSX 252259
RWRMO

WEATHER SUMMARY FOR MISSOURI
NATIONAL WEATHER SERVICE SPRINGFIELD MO
600 PM CDT SUN JUN 25 2017

NOTE: "FAIR" INDICATES FEW OR NO CLOUDS BELOW 12,000 FEET WITH NO
       SIGNIFICANT WEATHER AND/OR OBSTRUCTIONS TO VISIBILITY.
       CURRENT SKY AND/OR WEATHER CONDITIONS ARE NOT AVAILABLE FOR
       CHILLICOTHE AND FARMINGTON.

MOZ001>031-035>038-043-044-053-054-260000-
...NORTHERN AND WESTERN MISSOURI...

CITY           SKY/WX    TMP DP  RH WIND       PRES   REMARKS
KANSAS CTY INT PTSUNNY   65  50  58 W8        30.26F
KANSAS C DTWN  CLOUDY    65  52  62 W8        30.26F
LEE`S SUMMIT   CLOUDY    66  48  52 W7        30.27F
ST JOSEPH      MOSUNNY   76  48  37 NW8       30.23F
CHILLICOTHE      N/A     76  46  34 VRB6      30.23F
KIRKSVILLE     SUNNY     73  43  33 NW12G21   30.22S

$$
MOZ066>068-077>081-088>096-101>105-260000-
...SOUTHWEST MISSOURI...

CITY           SKY/WX    TMP DP  RH WIND       PRES   REMARKS
SPRINGFIELD    MOSUNNY   77  58  51 NW7       30.23F
JOPLIN         MOSUNNY   82  59  45 NE6       30.22F
BRANSON        PTSUNNY   81  54  39 W6        30.23F

$$
MOZ032>034-039>042-045>050-055>058-069>072-260000-
...CENTRAL MISSOURI...

CITY           SKY/WX    TMP DP  RH WIND       PRES   REMARKS
COLUMBIA       CLOUDY    76  49  38 NW13      30.22F
JEFFERSON CITY MOSUNNY   78  49  35 NW9       30.20F
ROLLA          SUNNY     76  51  41 W12       30.20S
SEDALIA        CLOUDY    74  52  46 NW9       30.25S
WARRENSBURG    CLOUDY    70  48  46 W8        30.25F

$$
MOZ051-052-059>065-260000-
...EAST CENTRAL MISSOURI...

CITY           SKY/WX    TMP DP  RH WIND       PRES   REMARKS
ST LOUIS INTL  MOSUNNY   82  46  28 W14G24    30.16F
SPIRIT OF STL  MOSUNNY   81  48  31 NW16G22   30.15F
ST CHARLES     SUNNY     78  45  30 NW12      30.15F

$$
MOZ072>076-082>087-097>100-106>115-260000-
...SOUTH CENTRAL AND SOUTHEAST MISSOURI...

CITY           SKY/WX    TMP DP  RH WIND       PRES   REMARKS
CAPE GIRARDEAU SUNNY     84  48  28 NW12      30.14F
FARMINGTON     MOSUNNY   80  50  34 NW12G17   30.18F
POPLAR BLUFF   SUNNY     83  57  41 SW5       30.15F
WEST PLAINS    SUNNY     83  46  27 NW7       30.22F

$$




USA.gov is the U.S. government's official web portal to all federal, state and local government web resources and services.